FW4761 Weather Reports


Display with metric or nautical units.
time (UTC)temp
F
wind
direction
speed
MPH
gust
MPH
rain 1hr
in
rain 24hr
in
rain mn
in
humidity
%
barometer
mb
20260508061713 59 179 1.0 3.0 0.00 0.00 0.00 76 979.7
20260508061212 59 179 1.0 3.0 0.00 0.00 0.00 76 979.8
20260508060712 59 179 1.0 4.0 0.00 0.00 0.00 75 979.7
20260508060211 60 179 1.0 4.0 0.00 0.00 0.00 75 979.7
20260508055710 59 178 1.0 3.0 0.00 0.00 0.00 76 979.6
20260508055208 59 178 1.0 3.0 0.00 0.00 0.00 76 979.7
20260508054706 59 178 1.0 3.0 0.00 0.00 0.00 76 979.7
20260508054209 59 178 0.0 3.0 0.00 0.00 0.00 76 979.5
20260508053709 59 177 1.0 6.0 0.00 0.00 0.00 76 979.6
20260508052204 59 172 0.0 2.0 0.00 0.00 0.00 76 979.6
20260508051701 58 172 0.0 2.0 0.00 0.00 0.00 76 979.8
20260508051159 59 172 0.0 2.0 0.00 0.00 0.00 76 979.7
20260508050659 59 172 0.0 2.0 0.00 0.00 0.00 75 979.7
20260508050200 59 172 0.0 2.0 0.00 0.00 0.00 75 979.8
20260508045657 60 172 0.0 2.0 0.00 0.00 0.00 74 980.0
20260508045156 60 172 1.0 3.0 0.00 0.00 0.00 74 980.0
20260508044653 60 172 1.0 3.0 0.00 0.00 0.00 73 979.9
20260508044153 60 172 0.0 0.0 0.00 0.00 0.00 73 979.9
20260508043653 61 172 0.0 0.0 0.00 0.00 0.00 72 980.0
20260508043152 61 172 0.0 1.0 0.00 0.00 0.00 71 979.9
20260508042653 62 172 0.0 1.0 0.00 0.00 0.00 71 980.0
20260508041652 62 172 0.0 2.0 0.00 0.00 0.00 70 980.0
20260508040653 62 172 0.0 0.0 0.00 0.00 0.00 71 980.0
20260508040153 62 172 0.0 0.0 0.00 0.00 0.00 70 979.9
20260508035652 62 172 0.0 0.0 0.00 0.00 0.00 70 979.9
20260508035152 62 172 0.0 0.0 0.00 0.00 0.00 70 979.9
20260508034653 62 172 0.0 1.0 0.00 0.00 0.00 70 979.8
20260508034152 62 172 0.0 3.0 0.00 0.00 0.00 71 979.8
20260508033652 62 172 0.0 3.0 0.00 0.00 0.00 71 979.9
20260508033153 62 155 0.0 0.0 0.00 0.00 0.00 72 979.8
20260508032651 62 0 0.0 0.0 0.00 0.00 0.00 73 979.8
20260508032149 61 0 0.0 0.0 0.00 0.00 0.00 73 979.7
20260508031644 62 179 0.0 0.0 0.00 0.00 0.00 72 979.8
20260508031138 63 169 0.0 0.0 0.00 0.00 0.00 70 979.6
20260508030636 64 0 0.0 0.0 0.00 0.00 0.00 70 979.6
20260508030137 64 183 0.0 0.0 0.00 0.00 0.00 69 979.3
20260508024634 65 184 0.0 0.0 0.00 0.00 0.00 68 979.4
20260508024135 65 185 0.0 0.0 0.00 0.00 0.00 67 979.2
20260508023635 65 180 0.0 0.0 0.00 0.00 0.00 67 979.3
20260508023132 65 0 0.0 0.0 0.00 0.00 0.00 67 979.2
20260508022632 65 177 0.0 0.0 0.00 0.00 0.00 67 979.2
20260508022132 65 175 0.0 0.0 0.00 0.00 0.00 66 979.1
20260508021631 65 174 0.0 0.0 0.00 0.00 0.00 66 979.1
20260508020626 65 186 0.0 0.0 0.00 0.00 0.00 66 979.0
20260508020126 65 180 0.0 0.0 0.00 0.00 0.00 65 979.2
20260508015626 66 182 0.0 3.0 0.00 0.00 0.00 65 979.1
20260508015126 66 0 1.0 4.0 0.00 0.00 0.00 64 979.0
20260508014626 66 0 2.0 4.0 0.00 0.00 0.00 64 979.0
20260508014128 66 0 2.0 4.0 0.00 0.00 0.00 64 979.0
20260508013121 67 167 3.0 5.0 0.00 0.00 0.00 63 979.0
20260508012615 67 166 3.0 6.0 0.00 0.00 0.00 63 978.8
20260508012109 67 166 3.0 6.0 0.00 0.00 0.00 63 978.7
20260508011604 67 167 3.0 6.0 0.00 0.00 0.00 62 978.8
20260508011058 68 155 3.0 6.0 0.00 0.00 0.00 62 978.7
20260508010045 68 155 2.0 5.0 0.00 0.00 0.00 61 978.6
20260508005540 69 156 2.0 5.0 0.00 0.00 0.00 60 978.7
20260508005034 69 169 3.0 8.0 0.00 0.00 0.00 59 978.7
20260508004022 70 175 4.0 7.0 0.00 0.00 0.00 57 978.8
20260508003515 70 159 4.0 7.0 0.00 0.00 0.00 57 978.9
20260508003009 71 167 4.0 6.0 0.00 0.00 0.00 56 978.9
20260508002504 71 163 3.0 6.0 0.00 0.00 0.00 56 978.8
20260508001957 71 0 3.0 6.0 0.00 0.00 0.00 55 978.7
20260508001451 71 0 4.0 9.0 0.00 0.00 0.00 55 978.8
20260508000946 71 0 5.0 10.0 0.00 0.00 0.00 54 978.8
20260507235427 72 188 6.0 13.0 0.00 0.00 0.00 53 978.8
20260507234922 72 174 6.0 13.0 0.00 0.00 0.00 53 978.9
20260507233910 73 155 7.0 13.0 0.00 0.00 0.00 52 978.8
20260507233404 73 146 8.0 13.0 0.00 0.00 0.00 51 978.9
20260507232858 74 161 8.0 13.0 0.00 0.00 0.00 49 978.8
20260507232352 75 163 6.0 13.0 0.00 0.00 0.00 47 978.8
20260507231340 76 161 4.0 9.0 0.00 0.00 0.00 44 978.7
20260507230833 76 188 2.0 6.0 0.00 0.00 0.00 43 978.8
20260507225821 77 204 2.0 6.0 0.00 0.00 0.00 40 979.0
20260507225316 76 209 3.0 5.0 0.00 0.00 0.00 41 978.9
20260507224809 75 210 3.0 5.0 0.00 0.00 0.00 41 978.8
20260507224304 76 210 1.0 5.0 0.00 0.00 0.00 41 978.8
20260507223758 76 236 1.0 3.0 0.00 0.00 0.00 40 979.0
20260507223251 75 236 2.0 5.0 0.00 0.00 0.00 39 979.1
20260507222240 76 238 3.0 6.0 0.00 0.00 0.00 40 979.1
20260507221227 76 281 2.0 4.0 0.00 0.00 0.00 40 979.2
20260507220721 76 0 1.0 4.0 0.00 0.00 0.00 41 979.0
20260507220215 75 25 2.0 8.0 0.00 0.00 0.00 41 979.2
20260507215709 75 26 3.0 8.0 0.00 0.00 0.00 41 979.4
20260507215204 76 342 4.0 9.0 0.00 0.00 0.00 41 979.4
20260507214658 76 338 4.0 9.0 0.00 0.00 0.00 41 979.5
20260507213645 75 340 4.0 7.0 0.00 0.00 0.00 42 979.5
20260507213140 75 43 4.0 9.0 0.00 0.00 0.00 41 979.6
20260507212634 76 313 3.0 9.0 0.00 0.00 0.00 42 979.6
20260507211621 76 275 3.0 8.0 0.00 0.00 0.00 41 979.6
20260507211115 76 297 4.0 9.0 0.00 0.00 0.00 41 979.7
20260507210104 75 55 2.0 5.0 0.00 0.00 0.00 44 979.8
20260507205557 74 56 3.0 9.0 0.00 0.00 0.00 44 979.8
20260507205051 75 65 5.0 10.0 0.00 0.00 0.00 43 979.8
20260507204040 75 107 1.0 7.0 0.00 0.00 0.00 45 980.0
20260507203536 74 104 1.0 7.0 0.00 0.00 0.00 45 980.0
20260507203036 74 355 3.0 7.0 0.00 0.00 0.00 44 980.1
20260507202535 75 348 4.0 12.0 0.00 0.00 0.00 44 980.2
20260507202036 74 332 3.0 12.0 0.00 0.00 0.00 45 980.1
20260507201037 74 53 4.0 10.0 0.00 0.00 0.00 44 980.4
20260507200536 74 355 4.0 11.0 0.00 0.00 0.00 45 980.5
20260507200036 74 61 3.0 11.0 0.00 0.00 0.00 45 980.5
20260507195535 74 44 1.0 10.0 0.00 0.00 0.00 47 980.4
20260507195036 73 340 3.0 9.0 0.00 0.00 0.00 49 980.6
20260507194532 74 351 5.0 12.0 0.00 0.00 0.00 46 980.6
20260507194032 73 0 5.0 12.0 0.00 0.00 0.00 47 980.7
20260507193531 74 338 3.0 10.0 0.00 0.00 0.00 47 980.8
20260507193031 73 63 3.0 11.0 0.00 0.00 0.00 46 980.9
20260507192031 72 118 2.0 7.0 0.00 0.00 0.00 46 981.1
20260507191532 72 100 2.0 13.0 0.00 0.00 0.00 47 981.1
20260507191032 71 41 4.0 13.0 0.00 0.00 0.00 47 981.2
20260507190028 72 19 5.0 13.0 0.00 0.00 0.00 47 981.3
20260507185527 72 61 4.0 11.0 0.00 0.00 0.00 46 981.4
20260507185027 73 325 3.0 8.0 0.00 0.00 0.00 45 981.3
20260507184528 72 45 2.0 8.0 0.00 0.00 0.00 47 981.4
20260507184026 71 66 1.0 5.0 0.00 0.00 0.00 50 981.4
20260507183525 71 42 2.0 6.0 0.00 0.00 0.00 48 981.5
20260507182023 71 313 4.0 11.0 0.00 0.00 0.00 47 981.9
20260507181521 71 36 4.0 11.0 0.00 0.00 0.00 45 981.9
20260507181019 71 0 4.0 15.0 0.00 0.00 0.00 47 982.1
20260507180519 72 36 4.0 15.0 0.00 0.00 0.00 46 982.1
20260507180019 71 92 2.0 8.0 0.00 0.00 0.00 48 982.2
20260507175519 70 40 2.0 5.0 0.00 0.00 0.00 50 982.4
20260507175013 69 355 4.0 10.0 0.00 0.00 0.00 48 982.6
20260507174507 70 332 4.0 10.0 0.00 0.00 0.00 49 982.6
20260507174001 69 317 3.0 8.0 0.00 0.00 0.00 49 982.7
20260507173454 70 292 3.0 8.0 0.00 0.00 0.00 48 982.8
20260507172949 69 348 2.0 6.0 0.00 0.00 0.00 51 983.0
20260507172442 69 349 2.0 7.0 0.00 0.00 0.00 51 983.1
20260507171937 68 257 2.0 7.0 0.00 0.00 0.00 52 983.2
20260507171431 68 259 3.0 10.0 0.00 0.00 0.00 49 983.2
20260507170925 68 28 4.0 11.0 0.00 0.00 0.00 50 983.3
20260507165912 68 0 4.0 8.0 0.00 0.00 0.00 50 983.5
20260507165406 67 0 3.0 8.0 0.00 0.00 0.00 51 983.5
20260507164901 67 321 4.0 9.0 0.00 0.00 0.00 51 983.6
20260507163850 67 100 5.0 11.0 0.00 0.00 0.00 52 983.8
20260507163343 67 0 3.0 11.0 0.00 0.00 0.00 52 983.8
20260507162836 67 80 2.0 6.0 0.00 0.00 0.00 52 983.8
20260507162331 66 338 3.0 7.0 0.00 0.00 0.00 52 983.8
20260507161825 65 335 3.0 8.0 0.00 0.00 0.00 53 983.9
20260507161319 66 103 3.0 8.0 0.00 0.00 0.00 53 984.0
20260507160813 66 131 3.0 7.0 0.00 0.00 0.00 53 983.9
20260507160307 66 89 3.0 7.0 0.00 0.00 0.00 52 983.9
20260507155255 65 90 3.0 8.0 0.00 0.00 0.00 55 984.0
20260507154748 65 83 3.0 8.0 0.00 0.00 0.00 53 984.1
20260507154243 65 93 2.0 6.0 0.00 0.00 0.00 55 984.2
20260507153737 64 0 4.0 9.0 0.00 0.00 0.00 55 984.3
20260507153230 64 46 4.0 9.0 0.00 0.00 0.00 55 984.4
20260507152724 64 79 4.0 9.0 0.00 0.00 0.00 55 984.3
20260507152218 64 71 3.0 9.0 0.00 0.00 0.00 56 984.4
20260507151712 64 118 3.0 7.0 0.00 0.00 0.00 56 984.3
20260507151207 64 0 4.0 8.0 0.00 0.00 0.00 54 984.1
20260507150701 64 97 3.0 8.0 0.00 0.00 0.00 57 984.2
20260507145648 64 132 3.0 7.0 0.00 0.00 0.00 57 984.4
20260507145143 63 82 2.0 5.0 0.00 0.00 0.00 60 984.5
20260507144637 62 77 1.0 5.0 0.00 0.00 0.00 60 984.7
20260507144131 62 0 1.0 5.0 0.00 0.00 0.00 60 984.8
20260507143624 62 0 1.0 4.0 0.00 0.00 0.00 62 984.8
20260507143118 61 0 1.0 4.0 0.00 0.00 0.00 62 984.8
20260507142612 62 0 1.0 6.0 0.00 0.00 0.00 62 984.8
20260507142107 61 108 1.0 6.0 0.00 0.00 0.00 63 984.9
20260507141054 60 92 3.0 5.0 0.00 0.00 0.00 65 984.8
20260507140043 60 18 4.0 8.0 0.00 0.00 0.00 65 984.8
20260507135537 59 17 4.0 8.0 0.00 0.00 0.00 66 984.8
20260507135030 59 351 4.0 8.0 0.00 0.00 0.00 67 984.9
20260507134019 58 325 2.0 5.0 0.00 0.00 0.00 68 984.9
20260507133513 58 321 1.0 5.0 0.00 0.00 0.00 68 985.0
20260507133006 57 323 2.0 5.0 0.00 0.00 0.00 69 984.9
20260507132501 57 323 1.0 4.0 0.00 0.00 0.00 70 984.9
20260507131955 56 325 2.0 4.0 0.00 0.00 0.00 71 984.9
20260507131455 56 323 2.0 4.0 0.00 0.00 0.00 73 984.8
20260507130452 55 323 1.0 5.0 0.00 0.00 0.00 75 984.6
20260507125953 54 322 2.0 6.0 0.00 0.00 0.00 76 984.6
20260507125450 53 317 2.0 6.0 0.00 0.00 0.00 77 984.4
20260507124948 52 329 2.0 6.0 0.00 0.00 0.00 78 984.5
20260507124452 52 330 2.0 6.0 0.00 0.00 0.00 78 984.4
20260507123949 51 329 2.0 6.0 0.00 0.00 0.00 79 984.5
20260507123449 51 0 2.0 6.0 0.00 0.00 0.00 80 984.4
20260507122949 50 329 2.0 6.0 0.00 0.00 0.00 80 984.4
20260507122449 50 327 1.0 6.0 0.00 0.00 0.00 81 984.4
20260507121948 49 309 0.0 3.0 0.00 0.00 0.00 81 984.5
20260507121447 49 304 0.0 3.0 0.00 0.00 0.00 81 984.5
20260507120945 49 304 1.0 4.0 0.00 0.00 0.00 81 984.5
20260507120444 49 302 1.0 4.0 0.00 0.00 0.00 82 984.4
20260507115945 49 303 0.0 4.0 0.00 0.00 0.00 82 984.3
20260507115444 49 306 0.0 4.0 0.00 0.00 0.00 82 984.4
20260507114942 49 310 0.0 2.0 0.00 0.00 0.00 82 984.3
20260507114439 49 309 0.0 2.0 0.00 0.00 0.00 82 984.3
20260507113939 49 309 0.0 2.0 0.00 0.00 0.00 82 984.3
20260507113439 49 310 0.0 3.0 0.00 0.00 0.00 82 984.2
20260507112939 49 311 0.0 3.0 0.00 0.00 0.00 82 984.0
20260507112438 49 355 0.0 2.0 0.00 0.00 0.00 82 983.9
20260507111942 49 11 0.0 2.0 0.00 0.00 0.00 82 983.9
20260507111442 50 11 0.0 2.0 0.00 0.00 0.00 82 983.9
20260507110942 50 11 0.0 2.0 0.00 0.00 0.00 81 983.9
20260507110442 50 11 0.0 2.0 0.00 0.00 0.00 81 983.8
20260507105438 50 13 0.0 0.0 0.00 0.00 0.00 81 983.8
20260507104938 50 13 0.0 0.0 0.00 0.00 0.00 80 983.6
20260507104435 50 13 0.0 0.0 0.00 0.00 0.00 80 983.6
20260507103935 50 13 0.0 0.0 0.00 0.00 0.00 79 983.6
20260507103435 50 13 0.0 1.0 0.00 0.00 0.00 80 983.5
20260507102934 50 13 0.0 1.0 0.00 0.00 0.00 79 983.3
20260507101934 51 14 0.0 1.0 0.00 0.00 0.00 79 983.0
20260507100935 51 14 0.0 2.0 0.00 0.00 0.00 78 982.9
20260507100433 51 14 0.0 2.0 0.00 0.00 0.00 79 982.8
20260507095430 51 12 1.0 5.0 0.00 0.00 0.00 79 982.8
20260507094930 51 14 2.0 5.0 0.00 0.00 0.00 79 982.8
20260507094428 51 18 1.0 4.0 0.00 0.00 0.00 79 982.6
20260507093928 51 24 1.0 5.0 0.00 0.00 0.00 79 982.5
20260507093428 51 22 1.0 5.0 0.00 0.00 0.00 79 982.5
20260507092927 51 22 1.0 5.0 0.00 0.00 0.00 78 982.5
20260507092427 52 21 1.0 5.0 0.00 0.00 0.00 79 982.6
20260507091927 52 21 0.0 3.0 0.00 0.00 0.00 79 982.7
20260507091428 52 23 1.0 3.0 0.00 0.00 0.00 79 982.8
20260507090925 52 23 1.0 4.0 0.00 0.00 0.00 79 982.8
20260507090424 52 25 0.0 4.0 0.00 0.00 0.00 79 982.8
20260507085924 52 26 0.0 2.0 0.00 0.00 0.00 79 982.7
20260507085417 52 27 0.0 4.0 0.00 0.00 0.00 79 982.6
20260507084912 52 27 0.0 4.0 0.00 0.00 0.00 79 982.6
20260507084405 52 27 0.0 6.0 0.00 0.00 0.00 79 982.6
20260507083900 52 27 0.0 6.0 0.00 0.00 0.00 79 982.6
20260507083354 52 24 1.0 5.0 0.00 0.00 0.00 79 982.4
20260507082847 52 24 2.0 4.0 0.00 0.00 0.00 80 982.3
20260507082341 52 22 2.0 8.0 0.00 0.00 0.00 80 982.3
20260507081836 52 19 2.0 7.0 0.00 0.00 0.00 80 982.4
20260507081330 53 23 3.0 7.0 0.00 0.00 0.00 80 982.3
20260507080824 53 11 3.0 8.0 0.00 0.00 0.00 81 982.3
20260507080318 53 20 3.0 8.0 0.00 0.00 0.00 81 982.4
20260507075811 53 355 2.0 8.0 0.00 0.00 0.00 81 982.4
20260507075307 53 20 0.0 5.0 0.00 0.00 0.00 81 982.5
20260507074759 53 28 0.0 3.0 0.00 0.00 0.00 81 982.5
20260507074254 53 29 0.0 5.0 0.00 0.00 0.00 81 982.4
20260507073748 53 30 0.0 5.0 0.00 0.00 0.00 81 982.5
20260507073241 53 31 1.0 5.0 0.00 0.00 0.00 81 982.5
20260507072736 53 32 2.0 5.0 0.00 0.00 0.00 80 982.4
20260507072230 53 24 2.0 5.0 0.00 0.00 0.00 80 982.5
20260507071724 53 30 1.0 5.0 0.00 0.00 0.00 80 982.5
20260507071218 53 60 1.0 5.0 0.00 0.00 0.00 80 982.5
20260507070712 53 62 0.0 3.0 0.00 0.00 0.00 80 982.6
20260507070206 53 63 0.0 3.0 0.00 0.00 0.00 80 982.6
20260507065700 53 64 0.0 4.0 0.00 0.00 0.00 80 982.7
20260507065154 53 64 0.0 4.0 0.00 0.00 0.00 80 982.7
20260507064141 53 64 0.0 4.0 0.00 0.00 0.00 80 982.6
20260507063635 53 64 0.0 4.0 0.00 0.00 0.00 80 982.7
20260507063130 53 64 0.0 2.0 0.00 0.00 0.00 80 982.6
20260507062624 53 64 0.0 2.0 0.00 0.00 0.00 80 982.5